Lexington, NE

9:05 AM CDT on April 21, 2018 (GMT -0500)
Kelly

Weather History for KLXN - March, 2014

Change the Weather History Date:

Monday, March 31, 2014

  Actual Average Record
Temperature  
Mean Temperature 46 °F -  
Max Temperature 64 °F 53 °F 84 °F (2012)
Min Temperature 28 °F 30 °F 23 °F (2004)
Degree Days  
Heating Degree Days 19    
Moisture  
Dew Point 29 °F    
Average Humidity 57    
Maximum Humidity 76    
Minimum Humidity 33    
Precipitation  
Precipitation 0.00 in - - ()
Sea Level Pressure  
Sea Level Pressure 29.66 in    
Wind  
Wind Speed 24 mph (WNW)    
Max Wind Speed 41 mph    
Max Gust Speed 51 mph    
Visibility 10 miles    
Events      
Averages and records for this station are not official NWS values.
T = Trace of Precipitation, MM = Missing Value Source: NWS Daily Summary

Daily Weather History Graph

Daily Weather History Graph

Search for Another Location

Airport or City:

Astronomy

Mar. 31, 2014 Rise Set
Actual Time 7:24 AM CDT 8:02 PM CDT
Civil Twilight 6:56 AM CDT 8:30 PM CDT
Nautical Twilight 6:24 AM CDT 9:03 PM CDT
Astronomical Twilight 5:50 AM CDT 9:37 PM CDT
Moon 7:48 AM CDT (3/31) 9:24 PM CDT (3/31)
Length of Visible Light 13h 34m
Length of Day
12h 38m
New Moon, 1% of the Moon is Illuminated
Mar 31
New Moon
Apr 7
First Quarter
Apr 15
Full
Apr 22
Last Quarter
Apr 29
New

Hourly Weather History & Observations

Time (CDT) Temp. Windchill Dew Point Humidity Pressure Visibility Wind Dir Wind Speed Gust Speed Precip Events Conditions
12:15 AM 63.1 °F - 36.3 °F 37% 29.43 in 10.0 mi South 23.0 mph 28.8 mph N/A   Clear
12:35 AM 63.9 °F - 35.6 °F 35% 29.41 in 10.0 mi South 24.2 mph 31.1 mph N/A   Clear
12:55 AM 64.6 °F - 35.1 °F 33% 29.41 in 10.0 mi South 23.0 mph 32.2 mph N/A   Clear
1:15 AM 64.4 °F - 35.2 °F 34% 29.41 in 10.0 mi South 21.9 mph 31.1 mph N/A   Clear
1:35 AM 64.6 °F - 35.1 °F 33% 29.41 in 10.0 mi South 19.6 mph 28.8 mph N/A   Clear
1:55 AM 64.4 °F - 34.9 °F 33% 29.39 in 10.0 mi South 19.6 mph 27.6 mph N/A   Clear
2:15 AM 63.3 °F - 34.7 °F 34% 29.38 in 10.0 mi South 21.9 mph 32.2 mph N/A   Clear
2:35 AM 63.0 °F - 35.2 °F 36% 29.37 in 10.0 mi South 18.4 mph 25.3 mph N/A   Clear
2:55 AM 62.8 °F - 35.6 °F 36% 29.36 in 10.0 mi South 18.4 mph 24.2 mph N/A   Clear
3:15 AM 61.7 °F - 36.0 °F 38% 29.35 in 10.0 mi South 16.1 mph 23.0 mph N/A   Clear
3:35 AM 60.8 °F - 36.9 °F 41% 29.39 in 10.0 mi WSW 15.0 mph - N/A   Clear
3:55 AM 60.4 °F - 37.8 °F 43% 29.37 in 10.0 mi SW 13.8 mph - N/A   Clear
4:15 AM 59.9 °F - 37.4 °F 43% 29.35 in 10.0 mi SSW 12.7 mph 19.6 mph N/A   Clear
4:35 AM 58.3 °F - 36.7 °F 45% 29.34 in 10.0 mi SSW 15.0 mph - N/A   Scattered Clouds
4:55 AM 56.7 °F - 33.8 °F 42% 29.34 in 10.0 mi SW 12.7 mph - N/A   Mostly Cloudy
5:15 AM 55.6 °F - 31.6 °F 40% 29.34 in 10.0 mi WSW 11.5 mph - N/A   Scattered Clouds
5:35 AM 54.7 °F - 31.1 °F 41% 29.34 in 10.0 mi West 13.8 mph - N/A   Scattered Clouds
5:55 AM 52.7 °F - 31.6 °F 45% 29.33 in 10.0 mi West 13.8 mph - N/A   Mostly Cloudy
6:15 AM 49.5 °F - 32.4 °F 52% 29.33 in 10.0 mi West 10.4 mph - N/A   Mostly Cloudy
6:35 AM 53.4 °F - 35.2 °F 50% 29.38 in 10.0 mi West 20.7 mph - N/A   Clear
6:55 AM 52.7 °F - 36.9 °F 55% 29.38 in 10.0 mi WSW 18.4 mph - N/A   Clear
7:15 AM 52.7 °F - 37.4 °F 56% 29.40 in 10.0 mi WSW 19.6 mph 26.5 mph N/A   Clear
7:35 AM 52.7 °F - 37.4 °F 56% 29.41 in 10.0 mi West 20.7 mph 27.6 mph N/A   Clear
7:55 AM 52.9 °F - 37.8 °F 56% 29.43 in 10.0 mi West 25.3 mph 34.5 mph N/A   Clear
8:15 AM 52.7 °F - 38.3 °F 58% 29.44 in 10.0 mi West 31.1 mph 39.1 mph N/A   Clear
8:35 AM 51.3 °F - 37.9 °F 60% 29.46 in 10.0 mi West 34.5 mph 44.9 mph N/A   Clear
8:55 AM 50.9 °F - 37.9 °F 61% 29.48 in 7.0 mi WNW 35.7 mph 43.7 mph N/A   Clear
9:15 AM 50.9 °F - 38.1 °F 62% 29.49 in 10.0 mi WNW 32.2 mph 41.4 mph N/A   Scattered Clouds
9:35 AM 48.2 °F - 37.8 °F 67% 29.51 in 10.0 mi WNW 35.7 mph 43.7 mph N/A   Overcast
9:55 AM 45.0 °F 35.2 °F 36.0 °F 71% 29.54 in 10.0 mi WNW 29.9 mph 41.4 mph N/A   Overcast
10:15 AM 44.8 °F 35.3 °F 36.3 °F 72% 29.56 in 10.0 mi WNW 27.6 mph 34.5 mph N/A   Overcast
10:35 AM 42.6 °F 31.9 °F 33.8 °F 71% 29.59 in 10.0 mi WNW 31.1 mph 38.0 mph N/A   Overcast
10:55 AM 41.0 °F 29.8 °F 33.3 °F 74% 29.61 in 10.0 mi WNW 29.9 mph 36.8 mph N/A   Overcast
11:15 AM 40.1 °F 28.8 °F 32.9 °F 75% 29.62 in 10.0 mi NW 28.8 mph 38.0 mph N/A   Overcast
11:35 AM 40.6 °F 30.2 °F 32.2 °F 72% 29.64 in 10.0 mi NW 25.3 mph 40.3 mph N/A   Overcast
11:55 AM 41.4 °F 30.9 °F 32.0 °F 69% 29.65 in 10.0 mi WNW 26.5 mph 38.0 mph N/A   Overcast
12:15 PM 39.7 °F 27.8 °F 30.4 °F 69% 29.67 in 10.0 mi NW 32.2 mph 38.0 mph N/A   Overcast
12:35 PM 38.5 °F 26.4 °F 29.8 °F 71% 29.69 in 10.0 mi NW 29.9 mph 36.8 mph N/A   Overcast
12:55 PM 39.7 °F 27.8 °F 27.1 °F 61% 29.70 in 10.0 mi NW 32.2 mph 44.9 mph N/A   Overcast
1:15 PM 37.9 °F 25.1 °F 28.6 °F 69% 29.73 in 7.0 mi WNW 33.4 mph 41.4 mph N/A   Overcast
1:35 PM 36.9 °F 24.0 °F 27.3 °F 68% 29.74 in 10.0 mi WNW 31.1 mph 40.3 mph N/A   Overcast
1:55 PM 37.2 °F 23.9 °F 25.3 °F 62% 29.75 in 10.0 mi WNW 34.5 mph 49.5 mph N/A   Overcast
2:15 PM 36.5 °F 22.4 °F 25.5 °F 64% 29.76 in 10.0 mi NW 38.0 mph 46.0 mph N/A   Overcast
2:35 PM 38.1 °F 24.6 °F 24.1 °F 57% 29.77 in 10.0 mi WNW 38.0 mph 46.0 mph N/A   Overcast
2:55 PM 36.9 °F 23.2 °F 20.3 °F 51% 29.79 in 10.0 mi NW 35.7 mph 48.3 mph N/A   Mostly Cloudy
3:15 PM 35.6 °F 20.8 °F 19.0 °F 51% 29.80 in 10.0 mi WNW 40.3 mph 48.3 mph N/A   Overcast
3:35 PM 36.7 °F 22.8 °F 19.6 °F 50% 29.81 in 10.0 mi WNW 36.8 mph 46.0 mph N/A   Mostly Cloudy
3:55 PM 35.6 °F 21.9 °F 19.6 °F 52% 29.82 in 10.0 mi WNW 33.4 mph 46.0 mph N/A   Mostly Cloudy
4:15 PM 34.3 °F 19.2 °F 17.8 °F 51% 29.83 in 10.0 mi NW 39.1 mph 49.5 mph N/A   Overcast
4:35 PM 34.0 °F 19.3 °F 18.7 °F 54% 29.85 in 10.0 mi WNW 35.7 mph 44.9 mph N/A   Overcast
4:55 PM 32.9 °F 16.9 °F 18.5 °F 55% 29.86 in 10.0 mi NW 41.4 mph 48.3 mph N/A   Overcast
5:15 PM 33.1 °F 17.5 °F 18.9 °F 56% 29.87 in 10.0 mi NW 39.1 mph 50.6 mph N/A   Overcast
5:35 PM 33.6 °F 19.0 °F 17.6 °F 52% 29.88 in 10.0 mi NW 34.5 mph 46.0 mph N/A   Overcast
5:55 PM 33.3 °F 18.1 °F 18.9 °F 56% 29.89 in 10.0 mi NW 36.8 mph 44.9 mph N/A   Scattered Clouds
6:15 PM 32.9 °F 18.0 °F 19.4 °F 58% 29.89 in 10.0 mi NW 34.5 mph 43.7 mph N/A   Mostly Cloudy
6:30 PM 34.2 °F 18.6 °F 20.8 °F 58% 29.91 in 10.0 mi NW 41.4 mph 48.3 mph N/A   Mostly Cloudy
6:55 PM 33.8 °F 19.4 °F 21.7 °F 61% 29.92 in 10.0 mi NW 33.4 mph 41.4 mph N/A   Scattered Clouds
7:15 PM 34.2 °F 19.9 °F 22.1 °F 61% 29.93 in 10.0 mi NW 33.4 mph 39.1 mph N/A   Scattered Clouds
7:35 PM 33.8 °F 20.1 °F 21.6 °F 61% 29.94 in 10.0 mi NW 29.9 mph 40.3 mph N/A   Clear
7:55 PM 33.1 °F 20.9 °F 21.9 °F 64% 29.95 in 10.0 mi NW 21.9 mph 34.5 mph N/A   Clear
8:15 PM 33.1 °F 20.9 °F 22.1 °F 64% 29.96 in 10.0 mi NW 21.9 mph 33.4 mph N/A   Clear
8:35 PM 32.2 °F 19.7 °F 22.6 °F 68% 29.98 in 10.0 mi NW 21.9 mph 27.6 mph N/A   Clear
8:55 PM 32.5 °F 20.5 °F 23.0 °F 68% 29.99 in 10.0 mi NW 20.7 mph 29.9 mph N/A   Clear
9:15 PM 32.4 °F 20.6 °F 23.0 °F 68% 30.00 in 10.0 mi NW 19.6 mph 27.6 mph N/A   Clear
9:35 PM 32.0 °F 19.8 °F 23.4 °F 70% 30.02 in 10.0 mi NW 20.7 mph 29.9 mph N/A   Clear
9:55 PM 31.6 °F 20.0 °F 23.0 °F 70% 30.03 in 10.0 mi NW 18.4 mph 29.9 mph N/A   Clear
10:15 PM 31.1 °F 18.6 °F 23.0 °F 72% 30.05 in 10.0 mi NNW 20.7 mph 32.2 mph N/A   Clear
10:35 PM 30.6 °F 18.6 °F 23.0 °F 74% 30.05 in 10.0 mi NNW 18.4 mph - N/A   Clear
10:55 PM 30.0 °F 18.3 °F 22.8 °F 75% 30.05 in 10.0 mi NNW 17.3 mph 21.9 mph N/A   Clear
11:15 PM 29.3 °F 16.6 °F 22.5 °F 76% 30.05 in 10.0 mi NNW 19.6 mph 25.3 mph N/A   Clear
11:35 PM 28.9 °F 17.3 °F 21.9 °F 75% 30.04 in 10.0 mi NNW 16.1 mph - N/A   Clear
11:55 PM 28.4 °F 16.2 °F 21.7 °F 76% 30.02 in 10.0 mi NNW 17.3 mph 24.2 mph N/A   Clear